,,Stat6,,Stat2,,Stat8,,Stat9,,Stat10,,Wind1,,Wind1,
time,status,PA1M_AVG,status,PR1M_SUM,status,RH1M_AVG,status,SR1M_AVG,status,TA1M_AVG,status,W1dAve1m,status,W1sAve1m,
2006-01-28, 00:00:00,VALID,919.146,VALID,0,VALID,86.7336,VALID,0.0339617,VALID,19.321,VALID,110,VALID,1.30632,
2006-01-28, 00:01:00,VALID,919.139,VALID,0,VALID,86.5022,VALID,0.101885,VALID,19.321,VALID,112,VALID,1.31994,
2006-01-28, 00:02:00,VALID,919.131,VALID,0,VALID,86.9396,VALID,0.0849042,VALID,19.318,VALID,113,VALID,1.31402,
2006-01-28, 00:03:00,VALID,919.146,VALID,0,VALID,87.7712,VALID,0.0849042,VALID,19.3282,VALID,122,VALID,1.19629,
2006-01-28, 00:04:00,VALID,919.155,VALID,0,VALID,87.9264,VALID,0.0849042,VALID,19.3182,VALID,132,VALID,1.07124,
2006-01-28, 00:05:00,VALID,919.14,VALID,0,VALID,88.4719,VALID,0.0339617,VALID,19.3085,VALID,132,VALID,0.964472,
2006-01-28, 00:06:00,VALID,919.123,VALID,0,VALID,89.1268,VALID,0.101885,VALID,19.311,VALID,123,VALID,0.737282,
2006-01-28, 00:07:00,VALID,919.099,VALID,0,VALID,89.3328,VALID,0.0849042,VALID,19.3185,VALID,112,VALID,1.03739,
2006-01-28, 00:08:00,VALID,919.072,VALID,0,VALID,88.641,VALID,0.0679233,VALID,19.2593,VALID,112,VALID,1.00781,
2006-01-28, 00:09:00,VALID,919.055,VALID,0,VALID,88.037,VALID,0.0679233,VALID,19.2436,VALID,108,VALID,1.00465,
2006-01-28, 00:10:00,VALID,919.052,VALID,0,VALID,87.2651,VALID,0.118866,VALID,19.2245,VALID,109,VALID,1.00818,
2006-01-28, 00:11:00,VALID,919.038,VALID,0,VALID,86.7743,VALID,0.0339617,VALID,19.2307,VALID,109,VALID,0.913867,
2006-01-28, 00:12:00,VALID,919.032,VALID,0,VALID,86.6789,VALID,0.0849042,VALID,19.26,VALID,109,VALID,0.870739,
2006-01-28, 00:13:00,VALID,919.01,VALID,0,VALID,86.7425,VALID,0.0509425,VALID,19.2956,VALID,109,VALID,0.635045,
2006-01-28, 00:14:00,VALID,918.989,VALID,0,VALID,86.6599,VALID,0.0509425,VALID,19.3212,VALID,109,VALID,0.78311,
2006-01-28, 00:15:00,VALID,918.972,VALID,0,VALID,85.8638,VALID,0.0509425,VALID,19.3244,VALID,109,VALID,0.853601,
2006-01-28, 00:16:00,VALID,918.952,VALID,0,VALID,85.8753,VALID,0.0679233,VALID,19.3665,VALID,109,VALID,0.900213,
2006-01-28, 00:17:00,VALID,918.923,VALID,0,VALID,86.5289,VALID,0.0679233,VALID,19.3864,VALID,124,VALID,1.08703,
2006-01-28, 00:18:00,VALID,918.908,VALID,0,VALID,86.609,VALID,0.0339617,VALID,19.3893,VALID,127,VALID,1.27634,
2006-01-28, 00:19:00,VALID,918.891,VALID,0,VALID,85.6362,VALID,0.0509425,VALID,19.3794,VALID,125,VALID,1.29306,
2006-01-28, 00:20:00,VALID,918.878,VALID,0,VALID,85.2992,VALID,0.101885,VALID,19.3831,VALID,122,VALID,1.19922,
2006-01-28, 00:21:00,VALID,918.876,VALID,0,VALID,84.9788,VALID,0.0679233,VALID,19.3958,VALID,118,VALID,1.28164,
2006-01-28, 00:22:00,VALID,918.877,VALID,0,VALID,85.49,VALID,0.0849042,VALID,19.3889,VALID,116,VALID,1.133,
2006-01-28, 00:23:00,VALID,918.885,VALID,0,VALID,85.3921,VALID,0.0509425,VALID,19.3794,VALID,125,VALID,1.07794,
2006-01-28, 00:24:00,VALID,918.892,VALID,0,VALID,85.0653,VALID,0.0679233,VALID,19.3635,VALID,133,VALID,1.29116,
2006-01-28, 00:25:00,VALID,918.892,VALID,0,VALID,85.2077,VALID,0.0849042,VALID,19.3468,VALID,131,VALID,1.31268,
2006-01-28, 00:26:00,VALID,918.871,VALID,0,VALID,85.3628,VALID,0.0509425,VALID,19.3468,VALID,128,VALID,1.23084,
2006-01-28, 00:27:00,VALID,918.841,VALID,0,VALID,85.5154,VALID,0.101885,VALID,19.3304,VALID,130,VALID,1.42795,
2006-01-28, 00:28:00,VALID,918.831,VALID,0,VALID,85.8092,VALID,0.101885,VALID,19.3304,VALID,130,VALID,1.3231,
2006-01-28, 00:29:00,VALID,918.818,VALID,0,VALID,86.3343,VALID,0.0679233,VALID,19.3309,VALID,130,VALID,1.29516,
2006-01-28, 00:30:00,VALID,918.82,VALID,0,VALID,86.4628,VALID,0.0849042,VALID,19.308,VALID,133,VALID,1.19386,
2006-01-28, 00:31:00,VALID,918.826,VALID,0,VALID,87.2143,VALID,0.0849042,VALID,19.3152,VALID,146,VALID,1.12755,
2006-01-28, 00:32:00,VALID,918.83,VALID,0,VALID,87.6339,VALID,0.0679233,VALID,19.2864,VALID,139,VALID,1.22301,
2006-01-28, 00:33:00,VALID,918.828,VALID,0,VALID,87.8221,VALID,0.0509425,VALID,19.2566,VALID,137,VALID,1.12832,
2006-01-28, 00:34:00,VALID,918.821,VALID,0,VALID,87.7013,VALID,0.101885,VALID,19.2173,VALID,137,VALID,0.923828,
2006-01-28, 00:35:00,VALID,918.815,VALID,0,VALID,87.7255,VALID,0.0679233,VALID,19.2076,VALID,139,VALID,0.572443,
2006-01-28, 00:36:00,VALID,918.797,VALID,0,VALID,87.7433,VALID,0.0169808,VALID,19.2113,VALID,133,VALID,0.771577,
2006-01-28, 00:37:00,VALID,918.799,VALID,0,VALID,87.5487,VALID,0.0509425,VALID,19.2118,VALID,128,VALID,1.02471,
2006-01-28, 00:38:00,VALID,918.783,VALID,0,VALID,87.6479,VALID,0.0509425,VALID,19.2088,VALID,131,VALID,0.810594,
2006-01-28, 00:39:00,VALID,918.776,VALID,0,VALID,87.5322,VALID,0.0339617,VALID,19.1792,VALID,122,VALID,0.730841,
2006-01-28, 00:40:00,VALID,918.778,VALID,0,VALID,86.9104,VALID,0.0169808,VALID,19.1762,VALID,120,VALID,0.995916,
2006-01-28, 00:41:00,VALID,918.768,VALID,0,VALID,86.7997,VALID,0.0339617,VALID,19.1767,VALID,118,VALID,0.95367,
2006-01-28, 00:42:00,VALID,918.757,VALID,0,VALID,86.2898,VALID,0.0509425,VALID,19.1735,VALID,125,VALID,1.13758,
2006-01-28, 00:43:00,VALID,918.755,VALID,0,VALID,86.0279,VALID,0.0169808,VALID,19.1797,VALID,119,VALID,1.13335,
2006-01-28, 00:44:00,VALID,918.735,VALID,0,VALID,85.743,VALID,0.0849042,VALID,19.1991,VALID,128,VALID,1.12021,
2006-01-28, 00:45:00,VALID,918.725,VALID,0,VALID,86.2186,VALID,0.0339617,VALID,19.2284,VALID,154,VALID,0.782584,
2006-01-28, 00:46:00,VALID,918.721,VALID,0,VALID,87.0375,VALID,0.0679233,VALID,19.2543,VALID,149,VALID,0.905297,
2006-01-28, 00:47:00,VALID,918.733,VALID,0,VALID,87.7102,VALID,0.0679233,VALID,19.2645,VALID,148,VALID,0.848474,
2006-01-28, 00:48:00,VALID,918.733,VALID,0,VALID,88.1527,VALID,0,VALID,19.2543,VALID,143,VALID,0.931818,
2006-01-28, 00:49:00,VALID,918.738,VALID,0,VALID,88.3994,VALID,0.0849042,VALID,19.228,VALID,143,VALID,1.19913,
2006-01-28, 00:50:00,VALID,918.727,VALID,0,VALID,88.5838,VALID,0.0509425,VALID,19.2125,VALID,142,VALID,1.00696,
2006-01-28, 00:51:00,VALID,918.716,VALID,0,VALID,88.772,VALID,0.0849042,VALID,19.1829,VALID,128,VALID,0.981399,
2006-01-28, 00:52:00,VALID,918.695,VALID,0,VALID,88.8445,VALID,0.0509425,VALID,19.1735,VALID,132,VALID,1.14708,
2006-01-28, 00:53:00,VALID,918.703,VALID,0,VALID,89.0365,VALID,0.0509425,VALID,19.1434,VALID,127,VALID,1.08761,
2006-01-28, 00:54:00,VALID,918.698,VALID,0,VALID,89.3862,VALID,0.0679233,VALID,19.1539,VALID,124,VALID,1.39444,
2006-01-28, 00:55:00,VALID,918.667,VALID,0,VALID,89.6723,VALID,0.0509425,VALID,19.1407,VALID,127,VALID,1.03609,
2006-01-28, 00:56:00,VALID,918.662,VALID,0,VALID,89.7702,VALID,0.0509425,VALID,19.1506,VALID,134,VALID,1.50218,
2006-01-28, 00:57:00,VALID,918.644,VALID,0,VALID,89.671,VALID,0.0509425,VALID,19.1439,VALID,132,VALID,1.70313,
2006-01-28, 00:58:00,VALID,918.648,VALID,0,VALID,89.4625,VALID,0.0509425,VALID,19.1603,VALID,131,VALID,1.38393,
2006-01-28, 00:59:00,VALID,918.64,VALID,0,VALID,89.5184,VALID,0.0679233,VALID,19.1864,VALID,133,VALID,1.43712,
2006-01-28, 01:00:00,VALID,918.643,VALID,0,VALID,89.4396,VALID,0.0339617,VALID,19.1926,VALID,145,VALID,1.31719,
2006-01-28, 01:01:00,VALID,918.654,VALID,0,VALID,89.259,VALID,0.0339617,VALID,19.2058,VALID,141,VALID,1.30124,
2006-01-28, 01:02:00,VALID,918.645,VALID,0,VALID,89.5006,VALID,0.0849042,VALID,19.2247,VALID,136,VALID,1.21736,
2006-01-28, 01:03:00,VALID,918.641,VALID,0,VALID,88.7822,VALID,0.0509425,VALID,19.2411,VALID,137,VALID,1.1997,
2006-01-28, 01:04:00,VALID,918.64,VALID,0,VALID,89.0632,VALID,0.0849042,VALID,19.2503,VALID,127,VALID,1.05231,
2006-01-28, 01:05:00,VALID,918.635,VALID,0,VALID,89.2107,VALID,0.0849042,VALID,19.2896,VALID,130,VALID,1.0824,
2006-01-28, 01:06:00,VALID,918.606,VALID,0,VALID,89.1497,VALID,0.101885,VALID,19.2891,VALID,131,VALID,1.32849,
2006-01-28, 01:07:00,VALID,918.606,VALID,0,VALID,89.1624,VALID,0.0509425,VALID,19.2929,VALID,119,VALID,1.72354,
2006-01-28, 01:08:00,VALID,918.595,VALID,0,VALID,89.2031,VALID,0.101885,VALID,19.2864,VALID,125,VALID,1.65309,
2006-01-28, 01:09:00,VALID,918.573,VALID,0,VALID,89.0288,VALID,0.101885,VALID,19.2804,VALID,123,VALID,1.61465,
2006-01-28, 01:10:00,VALID,918.567,VALID,0,VALID,89.0314,VALID,0.0169808,VALID,19.257,VALID,122,VALID,1.37038,
2006-01-28, 01:11:00,VALID,918.556,VALID,0,VALID,89.1535,VALID,0.0509425,VALID,19.2672,VALID,123,VALID,1.57736,
2006-01-28, 01:12:00,VALID,918.54,VALID,0,VALID,89.301,VALID,0.101885,VALID,19.2347,VALID,117,VALID,1.48674,
2006-01-28, 01:13:00,VALID,918.525,VALID,0,VALID,89.4498,VALID,0.0509425,VALID,19.222,VALID,114,VALID,1.39719,
2006-01-28, 01:14:00,VALID,918.505,VALID,0,VALID,89.54,VALID,0.0679233,VALID,19.2155,VALID,108,VALID,1.36967,
2006-01-28, 01:15:00,VALID,918.492,VALID,0,VALID,89.657,VALID,0.0509425,VALID,19.1959,VALID,104,VALID,1.28943,
2006-01-28, 01:16:00,VALID,918.463,VALID,0,VALID,89.8986,VALID,0.0679233,VALID,19.1797,VALID,98,VALID,1.33485,
2006-01-28, 01:17:00,VALID,918.422,VALID,0,VALID,90.3768,VALID,0.0679233,VALID,19.1573,VALID,101,VALID,1.31486,
2006-01-28, 01:18:00,VALID,918.396,VALID,0,VALID,90.7404,VALID,0.0509425,VALID,19.1349,VALID,106,VALID,1.45827,
2006-01-28, 01:19:00,VALID,918.359,VALID,0,VALID,91.0545,VALID,0.0339617,VALID,19.1121,VALID,107,VALID,1.50967,
2006-01-28, 01:20:00,VALID,918.335,VALID,0,VALID,91.0342,VALID,0.0339617,VALID,19.0562,VALID,112,VALID,1.49943,
2006-01-28, 01:21:00,VALID,918.324,VALID,0,VALID,90.9108,VALID,0.0679233,VALID,19.0435,VALID,115,VALID,1.85067,
2006-01-28, 01:22:00,VALID,918.302,VALID,0,VALID,90.7735,VALID,0.0169808,VALID,19.0273,VALID,129,VALID,1.67383,
2006-01-28, 01:23:00,VALID,918.293,VALID,0,VALID,90.6768,VALID,0.0509425,VALID,19.0469,VALID,134,VALID,1.50614,
2006-01-28, 01:24:00,VALID,918.278,VALID,0,VALID,90.8829,VALID,0.0339617,VALID,19.0633,VALID,125,VALID,1.84242,
2006-01-28, 01:25:00,VALID,918.251,VALID,0,VALID,91.2669,VALID,0.0849042,VALID,19.083,VALID,132,VALID,1.68623,
2006-01-28, 01:26:00,VALID,918.229,VALID,0,VALID,91.9586,VALID,0.0339617,VALID,19.0894,VALID,135,VALID,1.68423,
2006-01-28, 01:27:00,VALID,918.211,VALID,0,VALID,92.3541,VALID,0.0679233,VALID,19.073,VALID,135,VALID,1.72847,
2006-01-28, 01:28:00,VALID,918.196,VALID,0,VALID,92.4965,VALID,0.0169808,VALID,19.0407,VALID,121,VALID,1.59673,
2006-01-28, 01:29:00,VALID,918.189,VALID,0,VALID,93.0916,VALID,0.0679233,VALID,19.0121,VALID,122,VALID,1.89253,
2006-01-28, 01:30:00,VALID,918.175,VALID,0,VALID,93.2124,VALID,0.0679233,VALID,18.9467,VALID,118,VALID,1.60918,
2006-01-28, 01:31:00,VALID,918.158,VALID,0,VALID,93.4617,VALID,0.0679233,VALID,18.8918,VALID,111,VALID,1.45217,
2006-01-28, 01:32:00,VALID,918.115,VALID,0,VALID,93.6181,VALID,0.0169808,VALID,18.8502,VALID,117,VALID,1.57449,
2006-01-28, 01:33:00,VALID,918.095,VALID,0,VALID,93.5176,VALID,0.0169808,VALID,18.8142,VALID,124,VALID,1.71172,
2006-01-28, 01:34:00,VALID,918.067,VALID,0,VALID,93.3358,VALID,0.0339617,VALID,18.8184,VALID,120,VALID,1.66602,
2006-01-28, 01:35:00,VALID,918.044,VALID,0,VALID,92.7635,VALID,0.0679233,VALID,18.8055,VALID,119,VALID,1.62731,
2006-01-28, 01:36:00,VALID,918.011,VALID,0,VALID,92.2371,VALID,-0.0169808,VALID,18.7918,VALID,120,VALID,1.51108,
2006-01-28, 01:37:00,VALID,917.981,VALID,0,VALID,91.3216,VALID,0.0339617,VALID,18.802,VALID,113,VALID,1.37463,
2006-01-28, 01:38:00,VALID,917.961,VALID,0,VALID,90.8256,VALID,0,VALID,18.8085,VALID,95,VALID,1.25906,
2006-01-28, 01:39:00,VALID,917.933,VALID,0,VALID,90.4098,VALID,0,VALID,18.8311,VALID,103,VALID,1.12373,
2006-01-28, 01:40:00,VALID,917.926,VALID,0,VALID,89.4955,VALID,-0.0169808,VALID,18.8405,VALID,102,VALID,1.18694,
2006-01-28, 01:41:00,VALID,917.919,VALID,0,VALID,88.6677,VALID,0,VALID,18.8542,VALID,112,VALID,1.42642,
2006-01-28, 01:42:00,VALID,917.907,VALID,0,VALID,88.5622,VALID,-0.0339617,VALID,18.9057,VALID,118,VALID,1.33939,
2006-01-28, 01:43:00,VALID,917.885,VALID,0,VALID,88.1336,VALID,-0.0679233,VALID,18.9283,VALID,123,VALID,1.37271,
2006-01-28, 01:44:00,VALID,917.875,VALID,0,VALID,88.4096,VALID,-0.0169808,VALID,18.9609,VALID,115,VALID,0.997904,
2006-01-28, 01:45:00,VALID,917.877,VALID,0,VALID,88.1934,VALID,-0.0509425,VALID,18.9706,VALID,127,VALID,1.23666,
2006-01-28, 01:46:00,VALID,917.883,VALID,0,VALID,88.0395,VALID,-0.0339617,VALID,18.9673,VALID,124,VALID,1.2862,
2006-01-28, 01:47:00,VALID,917.885,VALID,0,VALID,88.0268,VALID,-0.0339617,VALID,18.9837,VALID,134,VALID,0.925595,
2006-01-28, 01:48:00,VALID,917.896,VALID,0,VALID,87.9022,VALID,-0.0509425,VALID,18.977,VALID,123,VALID,0.997159,
2006-01-28, 01:49:00,VALID,917.887,VALID,0,VALID,87.7318,VALID,0,VALID,18.9604,VALID,124,VALID,0.95149,
2006-01-28, 01:50:00,VALID,917.867,VALID,0,VALID,87.995,VALID,-0.0339617,VALID,18.9668,VALID,114,VALID,0.665698,
2006-01-28, 01:51:00,VALID,917.86,VALID,0,VALID,88.0815,VALID,0.0339617,VALID,18.9765,VALID,120,VALID,0.67024,
2006-01-28, 01:52:00,VALID,917.83,VALID,0,VALID,87.8908,VALID,0.0509425,VALID,18.946,VALID,138,VALID,0.650073,
2006-01-28, 01:53:00,VALID,917.81,VALID,0,VALID,88.2735,VALID,0.0679233,VALID,18.9594,VALID,131,VALID,0.536644,
2006-01-28, 01:54:00,VALID,917.808,VALID,0,VALID,88.4719,VALID,0.101885,VALID,18.9333,VALID,130,VALID,0.424006,
2006-01-28, 01:55:00,VALID,917.822,VALID,0,VALID,88.4706,VALID,0.0849042,VALID,18.9333,VALID,139,VALID,0.576563,
2006-01-28, 01:56:00,VALID,917.817,VALID,0,VALID,88.3104,VALID,0.0509425,VALID,18.9408,VALID,139,VALID,0.572621,
2006-01-28, 01:57:00,VALID,917.821,VALID,0,VALID,88.3625,VALID,0.0849042,VALID,18.9236,VALID,141,VALID,1.00436,
2006-01-28, 01:58:00,VALID,917.799,VALID,0,VALID,88.0052,VALID,0.0849042,VALID,18.9137,VALID,134,VALID,1.05602,
2006-01-28, 01:59:00,VALID,917.774,VALID,0,VALID,87.2511,VALID,0.0849042,VALID,18.9181,VALID,134,VALID,1.15644,
2006-01-28, 02:00:00,VALID,917.768,VALID,0,VALID,86.4132,VALID,0.118866,VALID,18.9241,VALID,135,VALID,1.14121,
2006-01-28, 02:01:00,VALID,917.747,VALID,0,VALID,85.8295,VALID,0.101885,VALID,18.9532,VALID,127,VALID,1.15663,
2006-01-28, 02:02:00,VALID,917.741,VALID,0,VALID,85.2433,VALID,0.0679233,VALID,18.9918,VALID,125,VALID,1.22012,
2006-01-28, 02:03:00,VALID,917.725,VALID,0,VALID,84.9775,VALID,0.0509425,VALID,19.0402,VALID,128,VALID,1.14509,
2006-01-28, 02:04:00,VALID,917.719,VALID,0,VALID,84.7321,VALID,0.0849042,VALID,19.0924,VALID,133,VALID,0.940848,
2006-01-28, 02:05:00,VALID,917.707,VALID,0,VALID,84.8694,VALID,0.101885,VALID,19.1051,VALID,126,VALID,0.796875,
2006-01-28, 02:06:00,VALID,917.697,VALID,0,VALID,84.7397,VALID,0.0679233,VALID,19.1113,VALID,120,VALID,1.00191,
2006-01-28, 02:07:00,VALID,917.679,VALID,0,VALID,84.83,VALID,0.0679233,VALID,19.1051,VALID,117,VALID,0.84375,
2006-01-28, 02:08:00,VALID,917.667,VALID,0,VALID,84.8847,VALID,0.0679233,VALID,19.1111,VALID,115,VALID,0.724927,
2006-01-28, 02:09:00,VALID,917.656,VALID,0,VALID,85.0475,VALID,0.0509425,VALID,19.0949,VALID,95,VALID,0.721058,
2006-01-28, 02:10:00,VALID,917.649,VALID,0,VALID,84.8033,VALID,0.101885,VALID,19.0887,VALID,97,VALID,0.759115,
2006-01-28, 02:11:00,VALID,917.649,VALID,0,VALID,85.1085,VALID,0.101885,VALID,19.079,VALID,84,VALID,0.762607,
2006-01-28, 02:12:00,VALID,917.658,VALID,0,VALID,85.2522,VALID,0.0679233,VALID,19.0797,VALID,96,VALID,0.751635,
2006-01-28, 02:13:00,VALID,917.647,VALID,0,VALID,85.0614,VALID,0.0849042,VALID,19.0763,VALID,93,VALID,0.865371,
2006-01-28, 02:14:00,VALID,917.645,VALID,0,VALID,85.3743,VALID,0.0679233,VALID,19.082,VALID,83,VALID,0.563408,
2006-01-28, 02:15:00,VALID,917.643,VALID,0,VALID,85.2598,VALID,0.0679233,VALID,19.1019,VALID,87,VALID,0.597284,
2006-01-28, 02:16:00,VALID,917.64,VALID,0,VALID,85.518,VALID,0.0339617,VALID,19.1019,VALID,97,VALID,0.364462,
2006-01-28, 02:17:00,VALID,917.632,VALID,0,VALID,85.8753,VALID,0.0509425,VALID,19.1215,VALID,103,VALID,0.240278,
2006-01-28, 02:18:00,VALID,917.614,VALID,0,VALID,85.5968,VALID,0.0849042,VALID,19.1173,VALID,103,VALID,0.334069,
2006-01-28, 02:19:00,VALID,917.595,VALID,0,VALID,86.2199,VALID,0.0509425,VALID,19.128,VALID,103,VALID,0.101376,
2006-01-28, 02:20:00,VALID,917.611,VALID,0,VALID,86.1525,VALID,0.0679233,VALID,19.1277,VALID,103,VALID,0,
2006-01-28, 02:21:00,VALID,917.638,VALID,0,VALID,85.9389,VALID,0.0339617,VALID,19.1377,VALID,103,VALID,0.110828,
2006-01-28, 02:22:00,VALID,917.635,VALID,0,VALID,85.6705,VALID,0.0169808,VALID,19.1285,VALID,103,VALID,0.354725,
2006-01-28, 02:23:00,VALID,917.656,VALID,0,VALID,85.8333,VALID,0.0339617,VALID,19.1155,VALID,103,VALID,0.383358,
2006-01-28, 02:24:00,VALID,917.644,VALID,0,VALID,86.7489,VALID,-0.0169808,VALID,19.0835,VALID,177,VALID,0.469531,
2006-01-28, 02:25:00,VALID,917.657,VALID,0,VALID,88.0294,VALID,0.0169808,VALID,19.0317,VALID,237,VALID,0.742882,
2006-01-28, 02:26:00,VALID,917.657,VALID,0,VALID,89.0568,VALID,0,VALID,18.977,VALID,237,VALID,0.58718,
2006-01-28, 02:27:00,VALID,917.666,VALID,0,VALID,89.8274,VALID,0,VALID,18.9156,VALID,237,VALID,0.539844,
2006-01-28, 02:28:00,VALID,917.656,VALID,0,VALID,90.6056,VALID,-0.0169808,VALID,18.8634,VALID,237,VALID,0.530692,
2006-01-28, 02:29:00,VALID,917.648,VALID,0,VALID,91.0482,VALID,0,VALID,18.8309,VALID,237,VALID,0.383789,
2006-01-28, 02:30:00,VALID,917.646,VALID,0,VALID,91.1842,VALID,0,VALID,18.8256,VALID,249,VALID,0.409412,
2006-01-28, 02:31:00,VALID,917.637,VALID,0,VALID,91.2847,VALID,0.0339617,VALID,18.8052,VALID,253,VALID,0.324963,
2006-01-28, 02:32:00,VALID,917.628,VALID,0,VALID,91.3979,VALID,0.0339617,VALID,18.8018,VALID,253,VALID,0.357772,
2006-01-28, 02:33:00,VALID,917.623,VALID,0,VALID,91.8455,VALID,0.0339617,VALID,18.8341,VALID,253,VALID,0.199389,
2006-01-28, 02:34:00,VALID,917.604,VALID,0,VALID,91.7501,VALID,0.0339617,VALID,18.8597,VALID,253,VALID,0.0163872,
2006-01-28, 02:35:00,VALID,917.591,VALID,0,VALID,91.6445,VALID,0.0339617,VALID,18.8666,VALID,253,VALID,0.0407774,
2006-01-28, 02:36:00,VALID,917.583,VALID,0,VALID,91.2618,VALID,0.0339617,VALID,18.8502,VALID,253,VALID,0,
2006-01-28, 02:37:00,VALID,917.565,VALID,0,VALID,91.3419,VALID,-0.0339617,VALID,18.8182,VALID,253,VALID,0.0946584,
2006-01-28, 02:38:00,VALID,917.55,VALID,0,VALID,91.8429,VALID,0,VALID,18.8443,VALID,202,VALID,0.414236,
2006-01-28, 02:39:00,VALID,917.534,VALID,0,VALID,91.993,VALID,0,VALID,18.8182,VALID,161,VALID,0.433771,
2006-01-28, 02:40:00,VALID,917.512,VALID,0,VALID,91.684,VALID,0.0169808,VALID,18.7856,VALID,137,VALID,0.828906,
2006-01-28, 02:41:00,VALID,917.488,VALID,0,VALID,90.7303,VALID,0.0339617,VALID,18.7339,VALID,113,VALID,0.839236,
2006-01-28, 02:42:00,VALID,917.482,VALID,0,VALID,91.6,VALID,0.0169808,VALID,18.7113,VALID,78,VALID,0.849201,
2006-01-28, 02:43:00,VALID,917.469,VALID,0,VALID,92.4355,VALID,0,VALID,18.718,VALID,64,VALID,0.939844,
2006-01-28, 02:44:00,VALID,917.468,VALID,0,VALID,92.6351,VALID,0.0509425,VALID,18.6725,VALID,40,VALID,1.07298,
2006-01-28, 02:45:00,VALID,917.472,VALID,0,VALID,92.7979,VALID,0,VALID,18.621,VALID,17,VALID,1.39672,
2006-01-28, 02:46:00,VALID,917.478,VALID,0,VALID,92.6389,VALID,0.0509425,VALID,18.573,VALID,25,VALID,1.85955,
2006-01-28, 02:47:00,VALID,917.488,VALID,0,VALID,92.7699,VALID,0.0339617,VALID,18.5056,VALID,23,VALID,1.70625,
2006-01-28, 02:48:00,VALID,917.498,VALID,0,VALID,92.8119,VALID,0.0169808,VALID,18.449,VALID,19,VALID,1.41164,
2006-01-28, 02:49:00,VALID,917.495,VALID,0,VALID,92.5016,VALID,0.0169808,VALID,18.4432,VALID,23,VALID,0.987537,
2006-01-28, 02:50:00,VALID,917.473,VALID,0,VALID,92.3694,VALID,0.0339617,VALID,18.4303,VALID,49,VALID,1.02325,
2006-01-28, 02:51:00,VALID,917.468,VALID,0,VALID,91.525,VALID,-0.0339617,VALID,18.44,VALID,78,VALID,1.25495,
2006-01-28, 02:52:00,VALID,917.453,VALID,0,VALID,90.9731,VALID,0,VALID,18.4564,VALID,77,VALID,0.905523,
2006-01-28, 02:53:00,VALID,917.454,VALID,0,VALID,91.4538,VALID,-0.0169808,VALID,18.4926,VALID,51,VALID,1.02915,
2006-01-28, 02:54:00,VALID,917.447,VALID,0,VALID,91.5263,VALID,-0.0339617,VALID,18.4986,VALID,35,VALID,1.44036,
2006-01-28, 02:55:00,VALID,917.472,VALID,0,VALID,91.1092,VALID,-0.0169808,VALID,18.4982,VALID,46,VALID,1.66515,
2006-01-28, 02:56:00,VALID,917.453,VALID,0,VALID,90.1644,VALID,0.0169808,VALID,18.5148,VALID,65,VALID,1.78776,
2006-01-28, 02:57:00,VALID,917.438,VALID,0,VALID,89.6316,VALID,-0.0169808,VALID,18.5467,VALID,74,VALID,2.10268,
2006-01-28, 02:58:00,VALID,917.399,VALID,0,VALID,88.3854,VALID,0,VALID,18.6053,VALID,95,VALID,2.45732,
2006-01-28, 02:59:00,VALID,917.408,VALID,0,VALID,87.5322,VALID,-0.0169808,VALID,18.6889,VALID,93,VALID,2.49909,
2006-01-28, 03:00:00,VALID,917.442,VALID,0,VALID,86.876,VALID,-0.0169808,VALID,18.7995,VALID,98,VALID,1.12748,
2006-01-28, 03:01:00,VALID,917.469,VALID,0,VALID,86.8277,VALID,0.0169808,VALID,18.89,VALID,176,VALID,0.768483,
2006-01-28, 03:02:00,VALID,917.467,VALID,0,VALID,89.0149,VALID,0,VALID,18.9708,VALID,189,VALID,1.15767,
2006-01-28, 03:03:00,VALID,917.461,VALID,0,VALID,90.9248,VALID,-0.0169808,VALID,18.9835,VALID,164,VALID,0.415365,
2006-01-28, 03:04:00,VALID,917.444,VALID,0,VALID,89.1408,VALID,0.0169808,VALID,18.9188,VALID,112,VALID,1.51799,
2006-01-28, 03:05:00,VALID,917.42,VALID,0,VALID,88.0942,VALID,0,VALID,18.8634,VALID,111,VALID,1.35957,
2006-01-28, 03:06:00,VALID,917.401,VALID,0,VALID,88.9042,VALID,0.0169808,VALID,18.8835,VALID,110,VALID,0.599414,
2006-01-28, 03:07:00,VALID,917.39,VALID,0,VALID,89.3518,VALID,-0.0169808,VALID,18.8897,VALID,110,VALID,0.224746,
2006-01-28, 03:08:00,VALID,917.368,VALID,0,VALID,89.9813,VALID,0.0169808,VALID,18.9188,VALID,22,VALID,0.521129,
2006-01-28, 03:09:00,VALID,917.365,VALID,0,VALID,89.9304,VALID,0.0339617,VALID,18.9158,VALID,2,VALID,0.31179,
2006-01-28, 03:10:00,VALID,917.344,VALID,0,VALID,89.3493,VALID,0.0169808,VALID,18.8731,VALID,2,VALID,0.261186,
2006-01-28, 03:11:00,VALID,917.312,VALID,0,VALID,88.7783,VALID,0,VALID,18.8602,VALID,28,VALID,0.642299,
2006-01-28, 03:12:00,VALID,917.304,VALID,0,VALID,88.7631,VALID,0,VALID,18.8604,VALID,88,VALID,0.791867,
2006-01-28, 03:13:00,VALID,917.29,VALID,0,VALID,89.3328,VALID,-0.0339617,VALID,18.838,VALID,94,VALID,0.937314,
2006-01-28, 03:14:00,VALID,917.28,VALID,0,VALID,89.6659,VALID,0,VALID,18.7925,VALID,95,VALID,0.971484,
2006-01-28, 03:15:00,VALID,917.252,VALID,0,VALID,90.0512,VALID,0.0339617,VALID,18.7411,VALID,67,VALID,0.976376,
2006-01-28, 03:16:00,VALID,917.24,VALID,0,VALID,89.9648,VALID,-0.0169808,VALID,18.702,VALID,50,VALID,1.00136,
2006-01-28, 03:17:00,VALID,917.235,VALID,0,VALID,90.3208,VALID,0.0169808,VALID,18.6893,VALID,18,VALID,1.45945,
2006-01-28, 03:18:00,VALID,917.209,VALID,0,VALID,90.5204,VALID,0.0339617,VALID,18.6573,VALID,33,VALID,1.53743,
2006-01-28, 03:19:00,VALID,917.192,VALID,0,VALID,90.9197,VALID,0,VALID,18.6346,VALID,46,VALID,1.52793,
2006-01-28, 03:20:00,VALID,917.189,VALID,0,VALID,91.174,VALID,0.0169808,VALID,18.6245,VALID,39,VALID,0.941907,
2006-01-28, 03:21:00,VALID,917.172,VALID,0,VALID,91.492,VALID,0.0339617,VALID,18.6178,VALID,3,VALID,0.702257,
2006-01-28, 03:22:00,VALID,917.149,VALID,0,VALID,91.6077,VALID,0.0679233,VALID,18.5947,VALID,327,VALID,0.626302,
2006-01-28, 03:23:00,VALID,917.124,VALID,0,VALID,91.6077,VALID,0.0679233,VALID,18.569,VALID,16,VALID,0.589177,
2006-01-28, 03:24:00,VALID,917.116,VALID,0,VALID,91.5759,VALID,0.0679233,VALID,18.549,VALID,52,VALID,0.733008,
2006-01-28, 03:25:00,VALID,917.113,VALID,0,VALID,91.4118,VALID,0.0679233,VALID,18.5531,VALID,85,VALID,0.740945,
2006-01-28, 03:26:00,VALID,917.106,VALID,0,VALID,91.6941,VALID,0.0679233,VALID,18.5395,VALID,89,VALID,0.676314,
2006-01-28, 03:27:00,VALID,917.101,VALID,0,VALID,91.9523,VALID,0.0849042,VALID,18.527,VALID,91,VALID,0.666992,
2006-01-28, 03:28:00,VALID,917.088,VALID,0,VALID,91.1766,VALID,0.0509425,VALID,18.5009,VALID,76,VALID,0.693403,
2006-01-28, 03:29:00,VALID,917.083,VALID,0,VALID,90.5993,VALID,0.0509425,VALID,18.488,VALID,76,VALID,0.915625,
2006-01-28, 03:30:00,VALID,917.074,VALID,0,VALID,90.6463,VALID,0.0679233,VALID,18.5203,VALID,62,VALID,0.854936,
2006-01-28, 03:31:00,VALID,917.091,VALID,0,VALID,89.9724,VALID,0.0509425,VALID,18.5596,VALID,61,VALID,0.706676,
2006-01-28, 03:32:00,VALID,917.076,VALID,0,VALID,90.3793,VALID,0.0849042,VALID,18.5947,VALID,61,VALID,0.456101,
2006-01-28, 03:33:00,VALID,917.073,VALID,0,VALID,90.3348,VALID,0.0679233,VALID,18.6175,VALID,61,VALID,0.454942,